Regional Weather Roundup
Issued by NWS Cleveland, OH

Home | Current Version | Previous Version | Graphics & Text | Print | Product List | Glossary On
Versions: 1 2 3 4 5 6 7 8 9 10 11 12 13 14 15 16 17 18 19 20 21 22 23 24 25 26 27 28 29 30 31 32 33 34 35 36 37 38 39 40 41 42 43 44 45 46 47 48 49 50
451
ASUS41 KCLE 200310
RWRCLE
OHIO REGIONAL WEATHER ROUNDUP
NATIONAL WEATHER SERVICE CLEVELAND, OH
1000 PM EST SUN FEB 19 2017

NOTE: "FAIR" INDICATES FEW OR NO CLOUDS BELOW 12,000 FEET WITH NO
SIGNIFICANT WEATHER AND/OR OBSTRUCTIONS TO VISIBILITY.

OHZ001>008-015>018-024>027-034-035-043-044-200400-
   NORTHWEST OHIO

CITY           SKY/WX    TMP DP  RH WIND       PRES   REMARKS
DEFIANCE       CLEAR     41  31  67 CALM      30.13R
FINDLAY        CLEAR     47  33  58 SW3       30.12R
TOLEDO EXPRESS CLOUDY    45  32  60 CALM      30.12R
TOLEDO EXEC    CLEAR     43  33  68 CALM      30.13R
LIMA           CLEAR     44  35  70 CALM      30.13R
$$

OHZ009>014-019>023-028>033-038-089-200400-
   NORTHEAST OHIO

CITY           SKY/WX    TMP DP  RH WIND       PRES   REMARKS
CLE-HOPKINS    PTCLDY    46  34  62 CALM      30.16R
CLE-LAKEFRONT  CLEAR     47  34  60 N5        30.13R
CUY CO. ARPT   CLEAR     43  36  75 CALM      30.14R
LORAIN-ELYRIA  CLEAR     43  33  68 NE5       30.13R
ASHTABULA      CLEAR     39  33  79 CALM      30.15R
AKRON-CANTON   CLEAR     50  33  52 W5        30.13R
WOOSTER        CLEAR     38  32  79 CALM      30.14R
MANSFIELD      CLEAR     43  33  68 S6        30.13R
YOUNGSTOWN     PTCLDY    47  31  53 N3        30.13R
$$

OHZ042-051>053-060>062-070>072-077>081-200400-
  SOUTHWEST OHIO

CITY           SKY/WX    TMP DP  RH WIND       PRES   REMARKS
CINC-COVINGTON CLEAR     46  45  96 S5        30.16R FOG
CINC-LUNKEN    CLEAR     42  41  96 CALM      30.17R FOG
HAMILTON       CLEAR     39  37  92 CALM      30.17R FOG
DAYTON         CLEAR     47  43  86 S3        30.15R
WRIGHT-PAT AFB CLEAR     43  43  99 CALM      30.15R
DAYTON GENERAL CLEAR     46  43  89 S6        30.14R
WILMINGTON     CLEAR     44  42  93 S3        30.15R FOG
$$

OHZ036-037-039>041-045>050-054>059-063>069-073>076-082>088-200400-
  CENTRAL AND SOUTHEAST OHIO

CITY           SKY/WX    TMP DP  RH WIND       PRES   REMARKS
COLUMBUS       PTCLDY    48  43  82 S3        30.15R HAZE
OSU AIRPORT    CLEAR     45  43  93 SE3       30.14R
BOLTON FIELD   CLEAR     40  39  96 S3        30.15F
RICKENBACK AFB CLEAR     44  43  97 S3        30.15S FOG
NEWARK         FOG       39  37  92 CALM      30.15S VSB 1
MARION         CLEAR     43  37  79 S6        30.14R
LANCASTER      CLEAR     37  36  96 SE5       30.16S FOG
ZANESVILLE     CLEAR     45  42  89 CALM      30.16R FOG
NEW PHILLY     NOT AVBL
$$




USA.gov is the U.S. government's official web portal to all federal, state and local government web resources and services.